FW5955 Weather Reports


time (UTC)temp
C
wind
direction
speed
KPH
gust
KPH
rain 1hr
cm
rain 24hr
cm
rain mn
cm
humidity
%
barometer
mb
20260902163044 21 106 0.0 8.0 0.00 0.03 0.03 82 1022.4
20260902161542 21 120 3.2 9.7 0.00 0.03 0.03 82 1022.4
20260902160040 21 51 1.6 12.9 0.00 0.03 0.03 83 1022.6
20260902154537 21 205 1.6 11.3 0.00 0.03 0.03 84 1022.6
20260902153036 21 122 3.2 11.3 0.00 0.03 0.03 83 1022.6
20260902151540 21 117 1.6 11.3 0.00 0.03 0.03 83 1022.8
20260902150032 20 51 1.6 12.9 0.00 0.03 0.03 84 1022.8
20260902144529 20 83 4.8 11.3 0.00 0.03 0.03 84 1022.9
20260902143026 20 96 6.4 11.3 0.00 0.03 0.03 84 1022.9
20260902141530 19 83 4.8 11.3 0.00 0.03 0.03 84 1022.8
20260902140022 19 118 4.8 11.3 0.00 0.03 0.03 83 1022.8
20260902134529 19 115 4.8 11.3 0.00 0.03 0.03 83 1022.7
20260902133019 19 158 3.2 9.7 0.00 0.03 0.03 84 1022.7
20260902131515 19 61 3.2 9.7 0.00 0.03 0.03 85 1022.8
20260902130012 18 102 1.6 8.0 0.00 0.03 0.03 86 1022.7
20260902124510 17 357 4.8 9.7 0.00 0.03 0.03 86 1022.6
20260902123011 17 49 3.2 9.7 0.00 0.03 0.03 86 1022.6
20260902121508 17 299 1.6 8.0 0.00 0.03 0.03 88 1022.6
20260902120003 17 38 3.2 11.3 0.00 0.03 0.03 88 1022.6
20260902114659 16 47 3.2 12.9 0.00 0.03 0.03 89 1022.6
20260902113100 16 80 0.0 6.4 0.00 0.03 0.03 90 1022.6
20260902111554 16 39 3.2 8.0 0.00 0.03 0.03 91 1022.5
20260902110056 15 49 1.6 8.0 0.00 0.03 0.03 91 1022.6
20260902104614 15 50 0.0 4.8 0.00 0.03 0.03 92 1022.5
20260902103046 15 60 0.0 1.6 0.00 0.03 0.03 93 1022.4
20260902101544 14 13 0.0 4.8 0.00 0.03 0.03 93 1022.3
20260902100106 13 61 0.0 6.4 0.00 0.03 0.03 93 1022.3
20260902094542 13 57 0.0 4.8 0.00 0.03 0.03 94 1022.1
20260902093041 13 79 0.0 3.2 0.03 0.03 0.03 94 1022.0
20260902091540 13 248 0.0 1.6 0.03 0.03 0.03 94 1021.8
20260902090039 13 340 0.0 3.2 0.03 0.03 0.03 94 1021.8
20260902084536 13 80 0.0 1.6 0.03 0.03 0.03 94 1021.5
20260902083034 13 267 0.0 3.2 0.00 0.00 0.00 94 1021.5
20260902081544 13 114 0.0 0.0 0.00 0.00 0.00 94 1021.4
20260902080034 13 115 0.0 0.0 0.00 0.00 0.00 93 1021.3
20260902074530 13 115 0.0 0.0 0.00 0.00 0.00 93 1021.2
20260902073028 13 351 0.0 6.4 0.00 0.00 0.00 93 1021.2
20260902071534 13 38 0.0 4.8 0.00 0.00 0.00 93 1021.1
20260902070026 13 140 0.0 1.6 0.00 0.00 0.00 93 1021.0
20260902064523 13 69 0.0 0.0 0.00 0.00 0.00 93 1020.8
20260902063023 13 65 0.0 1.6 0.00 0.00 0.00 93 1020.7
20260902061519 13 39 0.0 3.2 0.00 0.00 0.00 93 1020.6
20260902060018 13 49 0.0 4.8 0.00 0.00 0.00 93 1020.5
20260902054517 14 54 1.6 6.4 0.00 0.00 0.00 93 1020.4
20260902053016 13 68 0.0 9.7 0.00 0.00 0.00 93 1020.3
20260902051514 14 120 0.0 8.0 0.00 0.00 0.00 93 1020.2
20260902050019 14 48 1.6 8.0 0.00 0.00 0.00 93 1020.1
20260902044532 14 40 1.6 6.4 0.00 0.00 0.00 93 1020.2
20260902043010 14 49 0.0 4.8 0.00 0.00 0.00 93 1020.1
20260902041512 13 49 0.0 1.6 0.00 0.00 0.00 93 1020.0
20260902040007 13 61 0.0 0.0 0.00 0.00 0.00 93 1020.0
20260902034506 14 61 0.0 1.6 0.00 0.00 0.00 93 1020.0
20260902033005 14 58 0.0 1.6 0.00 0.00 0.00 93 1019.9
20260902031508 14 59 0.0 0.0 0.00 0.00 0.00 92 1019.9
20260902030002 14 61 0.0 1.6 0.00 0.00 0.00 92 1019.8
20260902024613 14 51 0.0 4.8 0.00 0.00 0.00 92 1019.8
20260902023100 14 65 0.0 3.2 0.00 0.00 0.00 92 1019.8
20260902021600 14 262 0.0 1.6 0.00 0.00 0.00 92 1019.8
20260902020126 14 141 0.0 1.6 0.00 0.00 0.00 92 1019.7
20260902014601 15 33 0.0 1.6 0.00 0.00 0.00 92 1019.6
20260902013056 15 344 0.0 1.6 0.00 0.00 0.00 92 1019.5
20260902011555 15 344 0.0 0.0 0.00 0.00 0.00 92 1019.4
20260902010054 15 3 0.0 1.6 0.00 0.00 0.00 91 1019.3
20260902004552 15 60 0.0 0.0 0.00 0.00 0.00 90 1019.2
20260902003050 16 270 0.0 1.6 0.00 0.00 0.00 89 1019.0
20260902001550 16 252 0.0 4.8 0.00 0.00 0.00 90 1019.0
20260902000049 16 276 0.0 3.2 0.00 0.00 0.00 90 1019.0
20260901234602 16 264 0.0 4.8 0.00 0.00 0.00 90 1018.9
20260901233146 17 276 0.0 1.6 0.00 0.00 0.00 89 1018.7
20260901231545 17 325 0.0 1.6 0.00 0.00 0.00 88 1018.4
20260901230049 17 270 0.0 4.8 0.00 0.00 0.00 87 1018.3
20260901224547 18 255 1.6 8.0 0.00 0.00 0.00 84 1018.2
20260901223049 18 262 3.2 11.3 0.00 0.00 0.00 82 1018.3
20260901221606 19 256 3.2 9.7 0.00 0.00 0.00 81 1018.2
20260901220042 19 243 6.4 11.3 0.00 0.00 0.00 79 1018.2
20260901214539 20 258 4.8 12.9 0.00 0.00 0.00 78 1018.0
20260901213040 20 223 6.4 14.5 0.00 0.00 0.00 77 1017.9
20260901211538 20 252 6.4 12.9 0.00 0.00 0.00 76 1017.9
20260901210038 20 229 6.4 16.1 0.00 0.00 0.00 79 1017.7
20260901204537 20 285 6.4 11.3 0.00 0.00 0.00 81 1017.6
20260901203048 20 222 6.4 11.3 0.00 0.00 0.00 81 1017.7
20260901201545 20 229 4.8 12.9 0.00 0.00 0.00 82 1017.6
20260901200035 20 237 6.4 16.1 0.00 0.00 0.00 82 1017.6
20260901194534 20 247 8.0 12.9 0.00 0.00 0.00 81 1017.6
20260901193034 21 205 4.8 16.1 0.00 0.00 0.00 78 1017.5
20260901191534 21 253 8.0 16.1 0.00 0.00 0.00 80 1017.4
20260901190041 20 236 8.0 16.1 0.00 0.00 0.00 81 1017.4
20260901184535 20 245 8.0 14.5 0.00 0.00 0.00 80 1017.4
20260901183034 20 204 6.4 16.1 0.00 0.00 0.00 80 1017.2
20260901181532 20 250 9.7 14.5 0.00 0.00 0.00 79 1017.4
20260901180031 19 256 8.0 19.3 0.00 0.00 0.00 81 1017.6
20260901174533 20 243 6.4 12.9 0.00 0.00 0.00 82 1017.6
20260901173030 19 193 4.8 12.9 0.00 0.00 0.00 83 1017.7
20260901171530 19 252 6.4 12.9 0.00 0.00 0.00 83 1017.7
20260901170030 19 205 4.8 11.3 0.00 0.00 0.00 82 1017.8
20260901164529 20 264 4.8 14.5 0.00 0.00 0.00 80 1017.7